AJISAI (EGS) (16908 NORAD) Tracking and Keplerian Element Data

This shows tracking and keplerian element data for the satellite.

Feedback or suggestion? Click here.




ElementValue
Catalog16908
NameAJISAI (EGS)
Epoch Orbit40414
Epoch Day286.86841389
Epoch Year2024
RAAN230.2512
Inclination50.0084
Eccentricity0.0011416
Argument of Perigee61.5621
Mean Anonmoly342.7378
Mean Motion12.44508209
Decay Rate-8.8E-07
L11 16908U 86061A 24286.86841389 -.00000088 00000+0 63968-4 0 9996
L22 16908 50.0084 230.2512 0011416 61.5621 342.7378 12.44508209404144



Live tracking and technical data element details for AJISAI (EGS) (NORAD 16908). AJISAI (EGS) can be tracked NOW for your location showing map with azimuth and elevation plus other details from your city location.







IsCatalogInMostPopularTable: catalog: 16908, numindb: 978
Update: records affected: 1



GetName: 16908 AJISAI (EGS)

Hit Count: updated at: Thu, 23 Jan 2025 14:03:16 GMT